Flag for U.S.A. Weather past 2 weeks in Escondido, California, U.S.A.

Now
81 °F

Sunny.


Feels Like: 83 °F
Forecast: 64 / 84 °F
Wind: 13 mph from West

Location: Ramona Airport

Current Time: Aug 1, 2015 at 4:25:41 PM

Latest Report: Aug 1, 2015 at 3:53 PM


Visibility: 10 mi

Pressure: 29.89 "Hg

Humidity: 56%

Dew point: 64 °F

Location of EscondidoLocation

Historic Weather in Escondido — Graph

°F

Escondido temperature yesterday

Maximum temperature yesterday: 92 °F (at 2:53 PM)
Minimum temperature yesterday: 64 °F (at 1:53 AM)
Average temperature yesterday: 74 °F

Past Weeks' High & Low Weather Summary

 TemperatureHumidityPressure
High92 °F (Jul 17, 2:53 PM)100% (Jul 24, 6:53 AM)30.09 "Hg (Jul 24, 6:53 AM)
Low56 °F (Jul 28, 4:53 AM)26% (Jul 25, 11:53 AM)29.79 "Hg (Jul 17, 3:53 PM)
Average72 °F71%29.94 "Hg
* Reported Jul 17 2:53 PM — Aug 1 2:53 PM, Escondido, Weather by CustomWeather, © 2015

Note: Actual official high and low records may vary slightly from our data, if they occured in-between our weather recording intervals... More about our weather records

Advertising

Escondido weather history for previous 24 hours

 ConditionsComfort  
Time TempWeatherWind HumidityBarometerVisibility
2:53 PM
Sat, Aug 1
87 °FSunny.10 mph48%29.89 "Hg10 mi
1:53 PM88 °FSunny.9 mph45%29.90 "Hg10 mi
12:53 PM85 °FSunny.8 mph48%29.92 "Hg10 mi
11:53 AM78 °FSunny.7 mph60%29.94 "Hg10 mi
10:53 AM75 °FPassing clouds.8 mph66%29.96 "Hg10 mi
9:53 AM71 °FPassing clouds.8 mph76%29.96 "Hg10 mi
8:53 AM64 °FFog.No wind94%29.97 "Hg3 mi
8:00 AM63 °FFog.No wind97%30.01 "Hg0 mi
6:53 AM63 °FFog.No wind97%29.96 "Hg0 mi
5:53 AM63 °FFog.3 mph93%29.94 "Hg0 mi
4:53 AM63 °FFog.No wind97%29.94 "Hg1 mi
3:53 AM63 °FFog.6 mph100%29.93 "Hg0 mi
2:53 AM62 °FFog.3 mph96%29.94 "Hg0 mi
1:53 AM63 °FClear.No wind90%29.94 "Hg8 mi
12:53 AM64 °FClear.No wind90%29.95 "Hg10 mi
11:53 PM
Fri, Jul 31
64 °FClear.3 mph90%29.96 "Hg9 mi
10:53 PM65 °FClear.5 mph91%29.95 "Hg10 mi
9:53 PM67 °FClear.6 mph85%29.96 "Hg10 mi
8:53 PM70 °FClear.5 mph79%29.96 "Hg10 mi
7:53 PM74 °FSunny.6 mph69%29.94 "Hg10 mi
6:53 PM79 °FSunny.8 mph56%29.93 "Hg10 mi
5:53 PM82 °FSunny.13 mph55%29.92 "Hg10 mi
4:53 PM85 °FSunny.12 mph50%29.93 "Hg10 mi
Weather by CustomWeather, © 2015

See weather overviewHow to use our weather pages